{"data":{"norad_id":56076,"intl_designator":"2023-043AG","name":"ONEWEB-0635","alt_names":[],"object_type":"PAYLOAD","status":"ACTIVE","operator":null,"country":"UK","launch_date":"2023-03-26","launch_site_code":"SRILR","launch_vehicle":null,"mission":null,"orbit_class":"UNKNOWN","rcs_meters":null,"size_class":null,"mass_kg":null,"dimensions":null,"purposes":["comms"],"wikipedia_slug":null,"has_3d_model":false,"image_url":null,"decayed_at":null,"tle_current":{"epoch":"2026-05-25T00:32:43.486656Z","epoch_age_seconds":69595,"freshness":"FRESH","line1":"1 56076U 23043AG  26145.02272554  .00000053  00000+0  10746-3 0  9999","line2":"2 56076  87.9001 263.8058 0002114  95.2065 264.9307 13.15549487153386","mean_motion":13.15549487,"eccentricity":0.0002114,"inclination_deg":87.9001,"raan_deg":263.8058,"arg_perigee_deg":95.2065,"mean_anomaly_deg":264.9307,"bstar":0.00010746,"rev_number":15338,"period_min":109.45996438977,"perigee_km":1200.1647765275,"apogee_km":1203.3695600099,"semimajor_km":7579.9041682687,"source":"CELESTRAK","updated_at":"2026-05-25T13:38:22.706684Z"}}}